Wind_Speed
65 63 68 66 64 67 68 65 66 66 63 63 62 66 64 62 65 62 63 64 62 68 71 74 78 77 76 76 75 73 69 62 64 69 70 73 76 78 74 74 74 77 83 85 70
68 70 70 67 70 73 72 72 70 73 71 63 62 67 67 69 63 63 61 62 65 62 64 65 71 70 68 70 66 66 67 62 67 69 70 71 76 81 79 80 84 75 67 61 59
73 74 72 72 74 75 75 75 71 75 78 78 75 72 72 71 73 65 64 62 63 67 60 60 60 62 65 68 69 65 63 67 67 71 70 70 76 81 80 76 81 66 58 48 52
79 76 76 76 75 72 81 83 74 77 78 78 85 81 81 75 69 65 66 59 66 62 65 60 57 57 52 59 66 62 61 63 65 69 75 72 74 79 77 74 80 68 44 43 49
87 83 81 80 78 80 83 80 80 79 81 85 83 85 87 84 77 63 67 63 64 64 63 61 60 53 57 63 62 60 60 62 67 69 71 68 71 75 77 75 77 60 44 42 50
89 91 94 88 85 86 88 82 83 82 83 84 79 81 88 87 83 67 65 66 66 67 62 62 63 65 63 60 63 62 62 63 63 63 66 68 73 71 80 86 71 50 45 48 48
95 92 91 94 97 95 94 86 86 89 91 79 79 74 79 78 81 75 65 70 61 71 68 65 66 65 63 64 64 64 60 58 62 65 69 79 71 81 78 82 58 49 48 53 49
99 100 102 97 98 95 87 85 90 90 78 77 78 70 69 69 68 66 69 73 63 68 74 73 72 66 63 69 65 62 59 59 66 68 74 80 70 78 79 65 51 46 49 54 51
101 101 99 98 92 90 93 93 88 80 76 66 60 59 56 60 61 64 68 73 63 62 72 71 66 65 65 68 68 69 61 63 67 72 78 75 67 85 62 50 45 43 45 52 50
103 103 107 100 96 96 99 96 85 79 75 63 55 48 49 57 63 65 66 71 70 64 62 68 67 64 68 72 68 66 63 65 70 76 80 72 66 68 50 40 38 35 44 50 49
105 112 109 103 102 102 106 98 84 77 69 63 54 45 51 56 58 59 61 64 68 73 72 72 72 72 75 69 67 64 63 67 70 77 79 68 58 53 42 30 31 36 45 49 47
114 114 115 106 105 107 105 98 86 68 70 61 53 47 50 55 57 59 58 62 64 65 64 66 58 70 68 66 63 63 66 68 72 76 76 71 60 46 33 28 28 41 46 47 46
119 120 118 113 109 104 102 93 84 72 65 68 48 46 52 54 59 62 60 64 68 65 63 64 62 59 63 67 68 68 68 67 71 77 74 63 41 38 29 25 38 46 47 46 42
127 127 121 115 107 104 102 98 87 75 62 58 55 46 50 58 60 61 60 65 59 61 63 61 62 63 66 68 65 66 69 67 67 72 69 47 29 37 25 34 44 46 48 47 42
128 129 116 105 113 110 102 94 80 73 59 58 57 56 52 56 63 66 64 67 63 62 67 67 70 68 67 69 67 65 66 67 70 72 58 38 32 40 27 42 46 51 52 50 46
124 118 112 111 106 103 88 79 75 69 58 57 55 58 60 60 62 69 74 73 70 68 75 76 70 68 69 69 71 70 70 68 68 63 47 33 33 38 31 49 53 51 52 53 48
116 114 107 105 100 93 84 77 67 58 56 52 51 53 59 64 65 68 72 73 76 76 76 77 79 77 76 76 74 73 69 65 63 55 36 34 34 46 37 51 53 54 55 52 46
113 114 106 98 93 87 81 71 61 55 56 54 53 53 54 59 65 69 71 74 76 76 77 77 76 75 78 79 76 75 65 58 56 46 35 37 35 47 38 50 51 54 56 48 44
114 107 100 94 89 83 72 62 60 58 57 61 61 54 52 55 60 65 74 77 78 79 81 80 80 80 81 78 76 69 60 57 44 38 35 42 40 51 49 53 55 54 54 46 44
103 98 93 88 83 75 68 65 66 63 63 63 65 57 54 54 58 62 72 78 81 82 83 83 80 78 79 76 69 64 53 46 40 39 35 45 44 48 52 54 54 53 55 49 46
96 89 85 81 75 72 69 69 68 65 61 60 58 56 52 54 58 61 63 70 79 81 81 81 80 77 76 75 67 59 47 41 42 39 37 49 41 51 55 49 58 60 60 52 48
87 82 78 75 71 73 70 64 61 61 60 57 57 54 54 50 53 57 61 65 70 76 80 82 84 78 78 70 64 58 46 42 44 42 39 52 43 53 54 52 56 58 61 53 49
80 77 75 73 71 63 62 63 60 62 62 59 54 55 56 52 52 54 54 59 65 66 70 72 70 74 71 58 55 47 44 42 46 46 44 49 46 50 51 52 55 58 60 56 51
75 75 74 66 64 62 60 58 57 56 59 56 54 50 54 53 50 51 52 53 59 62 62 62 62 67 67 51 43 47 46 47 54 51 48 48 49 48 47 53 52 59 61 57 51
72 71 66 65 63 61 58 52 50 49 50 50 51 46 47 48 49 52 52 52 55 55 59 57 57 58 58 50 48 51 50 50 59 55 53 54 53 54 55 56 55 65 62 61 56
67 66 64 63 61 57 53 49 46 44 43 44 44 41 40 46 47 52 52 50 54 51 53 57 53 52 53 50 53 55 53 51 62 58 53 50 54 57 56 58 59 60 65 64 64
64 62 62 58 54 52 48 44 39 39 38 37 37 37 39 41 44 49 49 50 49 53 50 50 50 50 51 51 56 59 59 56 62 63 59 55 58 55 56 63 60 59 63 64 63
Wind_Direction
296 297 298 297 296 297 297 295 293 293 290 288 284 282 282 283 280 283 280 271 272 271 268 271 270 269 272 274 276 275 275 274 271 273 274 275 278 279 278 281 286 281 281 278 278
293 293 293 295 294 294 292 292 291 289 286 284 279 278 277 278 276 275 273 270 269 268 268 270 268 266 272 273 269 268 272 266 267 271 270 274 278 281 286 289 290 285 284 276 269
289 291 291 294 293 293 288 288 287 288 285 284 278 273 273 272 274 274 267 268 266 264 263 269 267 265 267 267 268 264 263 261 264 266 270 277 282 286 290 295 292 290 288 276 259
292 290 290 288 289 291 293 287 289 287 288 283 277 275 273 270 268 273 263 262 265 268 262 265 263 259 265 266 261 260 265 266 269 272 274 278 280 285 293 300 296 296 279 263 247
291 287 286 286 289 288 292 289 289 290 288 285 281 275 272 272 265 264 260 255 261 261 261 260 266 270 273 273 269 269 271 274 276 278 278 283 287 288 304 298 294 294 267 254 243
288 289 288 285 286 291 290 288 291 291 292 286 280 276 272 268 266 257 252 251 262 259 257 257 263 265 267 270 270 271 274 278 280 279 281 285 289 297 297 291 293 279 260 244 241
287 287 289 291 289 292 293 290 289 295 294 288 277 275 268 266 258 252 251 249 252 257 256 256 264 264 266 265 267 269 276 276 277 279 284 287 295 297 293 290 286 272 257 244 237
283 285 288 291 291 290 291 291 292 294 293 291 280 276 267 259 247 245 247 249 246 252 254 260 262 262 263 263 267 274 270 278 278 281 285 289 296 294 295 287 279 268 255 242 233
285 291 296 294 295 293 295 298 297 293 296 291 283 271 257 250 245 247 247 243 241 253 254 258 258 262 263 267 267 273 275 281 277 281 285 295 301 297 290 284 271 258 247 235 223
293 294 299 298 298 297 297 299 298 298 297 293 286 268 250 248 244 245 245 242 239 244 253 257 259 260 265 264 270 273 274 276 276 281 285 292 303 300 283 274 256 248 239 221 217
296 295 300 297 297 298 298 300 302 299 300 300 289 270 249 246 245 244 240 238 242 243 248 253 253 256 257 261 265 269 272 273 279 282 285 299 308 294 276 256 239 234 232 213 211
294 298 300 297 297 299 300 304 304 302 305 295 286 267 249 243 243 236 236 239 241 244 250 251 257 255 258 262 263 269 271 276 279 282 287 297 302 283 258 234 227 218 202 207 209
295 297 299 298 300 300 301 306 306 304 303 292 279 263 249 240 239 240 237 237 242 242 245 251 254 256 258 260 265 269 272 272 279 282 290 300 290 265 237 212 207 206 204 205 201
296 297 298 298 301 301 305 305 304 302 300 286 283 266 248 244 237 243 244 243 243 250 255 257 255 257 258 263 267 267 271 274 277 280 289 298 256 242 212 203 205 200 201 202 198
294 297 297 299 303 304 303 303 300 298 296 282 275 266 257 244 240 239 242 245 243 244 246 247 250 255 259 261 265 268 270 270 275 282 291 283 224 234 205 199 203 198 200 199 198
297 297 297 301 300 299 298 295 293 290 286 277 268 259 252 249 241 238 240 239 238 244 244 247 252 255 256 259 263 266 267 273 278 282 288 252 211 224 198 198 202 202 202 200 196
297 297 299 299 299 298 297 295 292 289 277 272 265 257 252 247 244 241 238 239 241 243 246 250 251 253 254 257 261 265 268 274 278 281 263 226 204 217 198 195 203 204 204 205 201
297 298 298 296 296 296 295 294 292 284 280 274 267 263 256 252 247 244 241 238 241 244 248 250 252 254 256 259 262 265 269 274 276 269 232 216 200 214 202 195 205 208 204 204 204
295 295 294 295 295 294 294 291 286 282 278 276 272 266 261 256 250 247 242 242 241 243 246 249 253 256 258 260 263 267 272 274 267 240 218 205 206 211 193 199 208 208 207 205 206
292 292 293 294 293 293 291 290 287 284 280 277 275 271 263 256 253 247 243 242 241 242 247 251 252 255 258 262 265 269 274 261 242 224 213 199 210 205 192 205 211 213 210 206 210
290 291 293 291 291 292 291 289 286 284 278 274 270 266 261 254 251 248 247 244 244 245 246 249 251 254 256 260 264 271 263 243 225 216 207 199 208 202 199 207 210 211 211 209 213
290 292 291 290 292 292 291 288 285 280 275 269 267 265 259 252 249 247 245 245 245 245 247 248 251 254 255 258 261 260 249 216 216 209 206 196 200 198 203 210 211 211 212 213 218
291 290 291 293 293 291 288 284 281 277 275 273 267 261 258 253 245 244 241 241 242 243 244 246 248 251 255 257 255 247 218 211 211 208 203 196 198 202 207 219 215 217 212 213 218
291 292 293 293 291 289 286 284 280 276 273 270 266 259 256 252 247 243 240 237 239 239 243 243 245 245 248 243 231 218 208 208 209 209 199 196 197 202 209 224 216 217 213 213 218
292 292 292 292 291 290 288 286 281 276 269 266 262 255 250 247 243 241 237 234 235 234 236 237 236 237 239 226 216 209 208 207 209 212 200 192 197 203 208 215 217 213 214 213 216
293 292 292 292 293 291 289 286 282 276 270 263 260 253 243 240 236 237 235 230 231 230 231 232 231 229 230 218 209 208 208 207 206 211 202 197 200 208 210 212 221 217 217 218 219
292 292 292 293 293 292 288 284 279 271 266 262 255 246 236 233 230 231 230 228 224 226 225 227 226 224 224 213 206 210 207 205 206 207 204 200 203 209 214 215 220 221 220 222 224
Height
10710 10707 10704 10703 10699 10697 10694 10692 10689 10685 10681 10679 10676 10672 10669 10666 10661 10663 10661 10661 10660 10658 10659 10661 10663 10667 10668 10669 10668 10670 10676 10677 10672 10665 10663 10657 10650 10646 10661 10664 10666 10663 10660 10656 10651
10697 10694 10690 10688 10686 10683 10680 10677 10674 10670 10667 10663 10660 10655 10652 10649 10646 10649 10648 10646 10645 10646 10647 10647 10650 10653 10654 10653 10655 10656 10660 10661 10656 10653 10651 10652 10639 10628 10644 10652 10644 10645 10639 10638 10634
10683 10680 10677 10674 10671 10668 10665 10660 10656 10654 10651 10647 10641 10635 10635 10634 10630 10632 10631 10633 10630 10630 10633 10634 10636 10638 10639 10637 10640 10643 10649 10642 10644 10638 10641 10641 10630 10617 10626 10633 10625 10625 10621 10620 10619
10666 10664 10661 10658 10655 10652 10648 10643 10638 10636 10631 10628 10623 10618 10616 10613 10611 10614 10613 10616 10616 10617 10619 10621 10624 10625 10625 10626 10623 10634 10631 10627 10629 10625 10627 10627 10622 10612 10608 10616 10600 10608 10606 10605 10607
10649 10646 10643 10642 10639 10635 10629 10624 10621 10618 10611 10604 10601 10596 10594 10595 10591 10598 10594 10597 10600 10602 10605 10606 10608 10612 10612 10612 10612 10618 10614 10616 10615 10614 10612 10611 10611 10604 10600 10589 10586 10595 10592 10593 10595
10631 10628 10625 10623 10620 10614 10608 10604 10600 10598 10590 10583 10578 10573 10572 10571 10575 10575 10575 10578 10584 10586 10590 10592 10593 10597 10600 10600 10599 10599 10603 10602 10602 10599 10595 10595 10598 10599 10584 10565 10576 10579 10579 10579 10585
10610 10606 10605 10604 10600 10593 10587 10582 10581 10576 10570 10561 10554 10548 10548 10542 10549 10553 10556 10559 10563 10569 10573 10576 10579 10582 10587 10583 10586 10586 10591 10591 10586 10583 10581 10577 10590 10578 10570 10553 10564 10563 10566 10568 10575
10588 10586 10584 10583 10579 10570 10563 10559 10560 10554 10546 10536 10529 10526 10523 10521 10525 10531 10533 10538 10545 10548 10554 10560 10564 10566 10568 10568 10569 10572 10576 10576 10570 10567 10563 10562 10581 10554 10550 10544 10549 10550 10553 10558 10566
10565 10562 10559 10558 10552 10546 10538 10536 10537 10530 10522 10513 10505 10502 10498 10501 10504 10510 10512 10517 10526 10531 10534 10540 10547 10549 10550 10551 10555 10557 10563 10561 10557 10551 10550 10553 10561 10531 10534 10534 10534 10535 10542 10550 10559
10540 10535 10533 10532 10526 10522 10514 10511 10509 10503 10496 10489 10483 10479 10479 10481 10486 10491 10496 10501 10507 10512 10519 10524 10530 10534 10532 10533 10545 10544 10545 10546 10543 10539 10539 10542 10542 10520 10519 10522 10521 10527 10534 10543 10552
10517 10511 10509 10507 10500 10497 10488 10483 10483 10480 10470 10463 10461 10460 10458 10465 10470 10474 10479 10485 10492 10497 10502 10509 10515 10516 10514 10523 10527 10529 10530 10530 10530 10526 10524 10529 10528 10511 10509 10512 10514 10521 10531 10537 10547
10494 10485 10484 10482 10476 10470 10462 10458 10453 10455 10447 10441 10440 10441 10441 10449 10453 10454 10463 10472 10475 10480 10486 10493 10498 10497 10504 10507 10512 10514 10515 10516 10519 10511 10511 10513 10513 10501 10503 10504 10510 10520 10528 10533 10543
10468 10461 10459 10456 10452 10444 10436 10432 10429 10428 10433 10409 10424 10424 10424 10431 10437 10436 10452 10451 10458 10466 10470 10478 10481 10484 10490 10491 10497 10500 10500 10503 10506 10497 10499 10502 10499 10493 10495 10498 10508 10515 10522 10530 10540
10446 10437 10433 10431 10425 10417 10411 10409 10408 10404 10413 10401 10398 10406 10410 10413 10420 10423 10432 10438 10444 10449 10456 10462 10463 10469 10475 10475 10482 10484 10485 10490 10492 10488 10491 10493 10490 10483 10490 10495 10502 10510 10519 10527 10536
10420 10413 10407 10405 10402 10390 10388 10386 10387 10385 10391 10384 10384 10385 10391 10396 10403 10409 10415 10421 10427 10435 10442 10444 10448 10455 10459 10461 10466 10470 10474 10476 10478 10476 10483 10480 10479 10477 10487 10492 10498 10505 10511 10518 10527
10395 10387 10383 10385 10379 10370 10373 10374 10371 10368 10367 10363 10366 10366 10368 10375 10383 10390 10396 10403 10411 10417 10423 10427 10435 10438 10441 10446 10451 10456 10458 10463 10464 10465 10473 10467 10469 10472 10481 10485 10494 10502 10509 10513 10519
10374 10363 10363 10359 10354 10348 10348 10348 10349 10346 10342 10346 10346 10348 10350 10354 10362 10370 10379 10387 10395 10402 10406 10412 10417 10422 10426 10430 10436 10440 10444 10451 10452 10452 10457 10457 10463 10465 10473 10482 10492 10499 10506 10512 10521
10353 10343 10343 10337 10332 10328 10325 10324 10325 10325 10321 10325 10326 10328 10332 10339 10345 10351 10360 10368 10375 10382 10390 10395 10399 10406 10410 10414 10422 10424 10433 10437 10437 10439 10444 10448 10458 10459 10468 10479 10487 10495 10501 10509 10518
10330 10323 10319 10315 10310 10305 10306 10306 10302 10303 10304 10302 10302 10312 10318 10322 10327 10333 10340 10348 10355 10364 10371 10378 10382 10388 10394 10400 10405 10412 10419 10421 10424 10428 10433 10442 10445 10449 10464 10473 10479 10490 10498 10503 10511
10308 10301 10300 10293 10286 10287 10285 10283 10279 10280 10282 10283 10282 10292 10299 10304 10307 10313 10319 10327 10335 10344 10353 10360 10365 10373 10378 10383 10390 10397 10404 10406 10410 10417 10425 10434 10437 10448 10460 10467 10475 10486 10490 10495 10502
10287 10281 10278 10271 10269 10267 10265 10262 10260 10258 10262 10260 10262 10266 10276 10281 10287 10293 10302 10312 10316 10323 10332 10340 10349 10355 10362 10366 10376 10384 10388 10393 10398 10406 10415 10423 10432 10443 10452 10461 10469 10476 10480 10488 10494
10265 10260 10255 10252 10252 10249 10244 10242 10241 10236 10235 10240 10243 10248 10251 10260 10266 10273 10283 10289 10296 10303 10312 10322 10332 10338 10345 10352 10364 10370 10376 10381 10387 10396 10405 10414 10423 10435 10445 10453 10461 10470 10475 10484 10489
10244 10237 10234 10234 10231 10230 10226 10219 10221 10216 10213 10216 10223 10226 10228 10238 10246 10252 10264 10273 10276 10285 10292 10302 10313 10323 10328 10340 10349 10357 10365 10372 10378 10387 10398 10407 10419 10428 10438 10445 10456 10462 10466 10474 10480
10224 10217 10214 10215 10210 10208 10204 10202 10198 10199 10194 10195 10197 10206 10207 10218 10228 10238 10245 10252 10258 10268 10274 10285 10296 10305 10312 10326 10336 10343 10353 10361 10366 10377 10389 10398 10409 10420 10430 10434 10447 10453 10458 10466 10473
10208 10201 10197 10193 10190 10187 10183 10181 10178 10178 10176 10176 10177 10184 10191 10200 10210 10217 10225 10235 10241 10251 10258 10267 10277 10287 10296 10311 10322 10331 10341 10350 10358 10369 10380 10387 10400 10411 10418 10426 10435 10443 10448 10456 10462
10189 10184 10179 10174 10172 10167 10164 10163 10161 10159 10158 10158 10164 10170 10175 10181 10191 10198 10207 10220 10226 10237 10244 10253 10264 10274 10283 10299 10309 10320 10328 10340 10351 10361 10377 10385 10394 10402 10412 10420 10425 10436 10442 10448 10453
10173 10169 10162 10158 10154 10151 10149 10146 10146 10144 10145 10146 10150 10155 10161 10167 10176 10182 10193 10201 10212 10221 10231 10241 10253 10263 10273 10287 10298 10307 10316 10330 10342 10352 10364 10374 10384 10394 10404 10411 10417 10427 10435 10441 10447